Location: Bretagne
(43.8474°N, 0.4650°W)
Time: 14:42:47
(UTC+00:00)

Cosmos 1833 Rocket - Pass Details

Date: 15 January 2026
Orbit: 832 x 838 km, 71.0° (Epoch: 18 February)

Event Time Altitude Azimuth Distance (km) Brightness Sun altitude
Rises 18:10:08 0° 167° (SSE) 3,374 5.9 -14.2°
Reaches altitude 10° 18:12:59 10° 153° (SSE) 2,445 5.0 -14.7°
Maximum altitude 18:17:22 24° 102° (ESE) 1,674 3.7 -15.4°
Enters shadow 18:18:13 23° 88° (E) 1,711 3.7 -15.6°
